| time (UTC) | temp C | wind direction | speed KPH | gust KPH | rain 1hr cm | rain 24hr cm | rain mn cm | humidity % | barometer mb |
| 20260904081836 | 13 | 331 | 3.2 | 4.8 | 0.00 | 0.15 | 0.00 | 84 | 1010.2 |
| 20260904081333 | 13 | 351 | 3.2 | 4.8 | 0.00 | 0.15 | 0.00 | 84 | 1010.2 |
| 20260904080819 | 13 | 350 | 3.2 | 4.8 | 0.00 | 0.15 | 0.00 | 84 | 1010.2 |
| 20260904080323 | 13 | 19 | 3.2 | 4.8 | 0.00 | 0.15 | 0.00 | 84 | 1010.2 |
| 20260904075815 | 13 | 359 | 3.2 | 4.8 | 0.00 | 0.15 | 0.00 | 84 | 1010.2 |
| 20260904075311 | 13 | 18 | 3.2 | 6.4 | 0.00 | 0.15 | 0.00 | 84 | 1010.2 |
| 20260904074806 | 13 | 21 | 3.2 | 6.4 | 0.00 | 0.18 | 0.00 | 84 | 1010.2 |
| 20260904074305 | 13 | 4 | 3.2 | 4.8 | 0.00 | 0.18 | 0.00 | 84 | 1010.2 |
| 20260904073802 | 13 | 9 | 3.2 | 4.8 | 0.00 | 0.18 | 0.00 | 84 | 1010.0 |
| 20260904073302 | 13 | 359 | 3.2 | 6.4 | 0.00 | 0.18 | 0.00 | 84 | 1010.0 |
| 20260904072805 | 13 | 359 | 3.2 | 6.4 | 0.00 | 0.18 | 0.00 | 84 | 1010.0 |
| 20260904072313 | 13 | 355 | 3.2 | 6.4 | 0.00 | 0.18 | 0.00 | 84 | 1009.9 |
| 20260904071808 | 13 | 9 | 3.2 | 4.8 | 0.00 | 0.18 | 0.00 | 84 | 1009.9 |
| 20260904071258 | 13 | 16 | 3.2 | 4.8 | 0.00 | 0.18 | 0.00 | 84 | 1009.9 |
| 20260904070752 | 13 | 26 | 3.2 | 4.8 | 0.00 | 0.18 | 0.00 | 84 | 1009.8 |
| 20260904070245 | 13 | 18 | 1.6 | 4.8 | 0.00 | 0.18 | 0.00 | 83 | 1009.8 |
| 20260904070023 | 13 | 350 | 1.6 | 4.8 | 0.00 | 0.18 | 0.18 | 83 | 1009.8 |
| 20260904065233 | 13 | 250 | 1.6 | 3.2 | 0.00 | 0.18 | 0.18 | 83 | 1009.8 |
| 20260904065020 | 13 | 250 | 1.6 | 3.2 | 0.00 | 0.18 | 0.18 | 83 | 1009.8 |
| 20260904064231 | 13 | 9 | 0.0 | 1.6 | 0.00 | 0.18 | 0.18 | 83 | 1009.8 |
| 20260904063729 | 13 | 9 | 1.6 | 3.2 | 0.00 | 0.18 | 0.18 | 83 | 1009.8 |
| 20260904063235 | 13 | 9 | 1.6 | 4.8 | 0.00 | 0.18 | 0.18 | 83 | 1009.8 |
| 20260904062729 | 13 | 9 | 3.2 | 4.8 | 0.00 | 0.18 | 0.18 | 83 | 1009.8 |
| 20260904062230 | 13 | 9 | 3.2 | 4.8 | 0.00 | 0.18 | 0.18 | 83 | 1009.8 |
| 20260904061731 | 13 | 4 | 3.2 | 4.8 | 0.00 | 0.18 | 0.18 | 83 | 1009.8 |
| 20260904061525 | 13 | 23 | 1.6 | 4.8 | 0.00 | 0.18 | 0.18 | 82 | 1009.8 |
| 20260904060729 | 13 | 75 | 0.0 | 3.2 | 0.00 | 0.18 | 0.18 | 82 | 1009.8 |
| 20260904060512 | 13 | 152 | 0.0 | 1.6 | 0.00 | 0.18 | 0.18 | 81 | 1009.8 |
| 20260904055737 | 13 | 152 | 1.6 | 3.2 | 0.00 | 0.18 | 0.18 | 80 | 1009.8 |
| 20260904055230 | 13 | 152 | 3.2 | 6.4 | 0.00 | 0.18 | 0.18 | 80 | 1009.9 |
| 20260904054732 | 13 | 153 | 3.2 | 6.4 | 0.00 | 0.18 | 0.18 | 80 | 1009.9 |
| 20260904054233 | 13 | 171 | 1.6 | 4.8 | 0.00 | 0.18 | 0.18 | 81 | 1009.9 |
| 20260904053734 | 13 | 359 | 1.6 | 3.2 | 0.00 | 0.18 | 0.18 | 82 | 1009.8 |
| 20260904053224 | 13 | 359 | 1.6 | 3.2 | 0.00 | 0.18 | 0.18 | 82 | 1009.8 |
| 20260904052712 | 13 | 337 | 0.0 | 3.2 | 0.00 | 0.18 | 0.18 | 82 | 1009.8 |
| 20260904052205 | 13 | 282 | 0.0 | 3.2 | 0.00 | 0.18 | 0.18 | 82 | 1009.8 |
| 20260904051958 | 13 | 271 | 0.0 | 0.0 | 0.00 | 0.18 | 0.18 | 81 | 1009.8 |
| 20260904051451 | 13 | 271 | 0.0 | 1.6 | 0.00 | 0.18 | 0.18 | 81 | 1009.8 |
| 20260904051001 | 13 | 271 | 0.0 | 1.6 | 0.00 | 0.18 | 0.18 | 80 | 1009.8 |
| 20260904050204 | 13 | 271 | 0.0 | 1.6 | 0.00 | 0.18 | 0.18 | 80 | 1009.8 |
| 20260904045949 | 13 | 271 | 0.0 | 1.6 | 0.00 | 0.18 | 0.18 | 79 | 1009.8 |
| 20260904045153 | 13 | 271 | 0.0 | 1.6 | 0.00 | 0.18 | 0.18 | 79 | 1009.7 |
| 20260904044641 | 13 | 271 | 0.0 | 1.6 | 0.00 | 0.18 | 0.18 | 78 | 1009.7 |
| 20260904044136 | 13 | 271 | 1.6 | 4.8 | 0.00 | 0.18 | 0.18 | 78 | 1009.7 |
| 20260904043631 | 13 | 271 | 1.6 | 4.8 | 0.00 | 0.18 | 0.18 | 77 | 1009.7 |
| 20260904043428 | 13 | 217 | 3.2 | 6.4 | 0.00 | 0.18 | 0.18 | 76 | 1009.7 |
| 20260904042628 | 13 | 177 | 4.8 | 8.0 | 0.00 | 0.18 | 0.18 | 77 | 1009.7 |
| 20260904042127 | 13 | 159 | 4.8 | 8.0 | 0.00 | 0.18 | 0.18 | 77 | 1009.7 |
| 20260904041731 | 13 | 147 | 3.2 | 8.0 | 0.00 | 0.18 | 0.18 | 79 | 1009.7 |
| 20260904040622 | 13 | 248 | 1.6 | 4.8 | 0.00 | 0.18 | 0.18 | 77 | 1009.7 |
| 20260904040418 | 13 | 212 | 1.6 | 4.8 | 0.00 | 0.18 | 0.18 | 76 | 1009.7 |
| 20260904035607 | 14 | 238 | 1.6 | 4.8 | 0.00 | 0.18 | 0.18 | 75 | 1009.5 |
| 20260904035102 | 14 | 248 | 1.6 | 3.2 | 0.00 | 0.18 | 0.18 | 76 | 1009.5 |
| 20260904034601 | 14 | 252 | 1.6 | 3.2 | 0.00 | 0.18 | 0.18 | 75 | 1009.5 |
| 20260904034354 | 14 | 211 | 1.6 | 4.8 | 0.00 | 0.18 | 0.18 | 74 | 1009.3 |
| 20260904033602 | 14 | 186 | 1.6 | 4.8 | 0.00 | 0.18 | 0.18 | 73 | 1009.3 |
| 20260904033353 | 14 | 161 | 1.6 | 3.2 | 0.00 | 0.18 | 0.18 | 72 | 1009.3 |
| 20260904032554 | 14 | 267 | 1.6 | 4.8 | 0.00 | 0.18 | 0.18 | 71 | 1009.2 |
| 20260904032049 | 15 | 265 | 3.2 | 4.8 | 0.00 | 0.18 | 0.18 | 71 | 1009.2 |
| 20260904031846 | 15 | 218 | 3.2 | 6.4 | 0.00 | 0.18 | 0.18 | 69 | 1009.2 |
| 20260904031049 | 15 | 213 | 3.2 | 8.0 | 0.00 | 0.18 | 0.18 | 69 | 1009.3 |
| 20260904030547 | 15 | 150 | 4.8 | 8.0 | 0.00 | 0.18 | 0.18 | 68 | 1009.3 |
| 20260904030346 | 15 | 163 | 3.2 | 6.4 | 0.00 | 0.18 | 0.18 | 68 | 1009.3 |
| 20260904025840 | 15 | 178 | 3.2 | 6.4 | 0.00 | 0.18 | 0.18 | 68 | 1009.2 |
| 20260904025041 | 15 | 209 | 3.2 | 9.7 | 0.00 | 0.18 | 0.18 | 68 | 1009.2 |
| 20260904024621 | 15 | 179 | 3.2 | 9.7 | 0.00 | 0.18 | 0.18 | 68 | 1009.2 |
| 20260904023536 | 15 | 174 | 3.2 | 6.4 | 0.00 | 0.18 | 0.18 | 68 | 1009.2 |
| 20260904023340 | 15 | 246 | 3.2 | 6.4 | 0.00 | 0.18 | 0.18 | 68 | 1009.2 |
| 20260904022834 | 15 | 256 | 3.2 | 6.4 | 0.00 | 0.18 | 0.18 | 68 | 1009.2 |
| 20260904022018 | 15 | 185 | 4.8 | 8.0 | 0.00 | 0.18 | 0.18 | 67 | 1009.2 |
| 20260904021515 | 15 | 157 | 4.8 | 8.0 | 0.00 | 0.18 | 0.18 | 67 | 1009.2 |
| 20260904021311 | 15 | 154 | 6.4 | 11.3 | 0.00 | 0.18 | 0.18 | 68 | 1009.0 |
| 20260904020505 | 15 | 174 | 6.4 | 17.7 | 0.00 | 0.18 | 0.18 | 68 | 1009.0 |
| 20260904020003 | 15 | 230 | 6.4 | 17.7 | 0.00 | 0.18 | 0.18 | 68 | 1009.0 |
| 20260904015505 | 15 | 216 | 4.8 | 9.7 | 0.00 | 0.18 | 0.18 | 68 | 1008.9 |
| 20260904015001 | 15 | 197 | 4.8 | 8.0 | 0.00 | 0.18 | 0.18 | 69 | 1008.9 |
| 20260904014501 | 15 | 229 | 4.8 | 8.0 | 0.00 | 0.18 | 0.18 | 69 | 1008.9 |
| 20260904014304 | 15 | 238 | 4.8 | 8.0 | 0.00 | 0.18 | 0.18 | 69 | 1009.0 |
| 20260904013501 | 15 | 207 | 4.8 | 8.0 | 0.00 | 0.18 | 0.18 | 68 | 1009.0 |
| 20260904013300 | 15 | 209 | 6.4 | 22.5 | 0.00 | 0.18 | 0.18 | 68 | 1009.0 |
| 20260904012507 | 15 | 188 | 8.0 | 22.5 | 0.00 | 0.18 | 0.18 | 68 | 1008.9 |
| 20260904012000 | 15 | 139 | 9.7 | 20.9 | 0.00 | 0.18 | 0.18 | 68 | 1008.9 |
| 20260904011721 | 15 | 203 | 8.0 | 20.9 | 0.00 | 0.18 | 0.18 | 67 | 1008.9 |
| 20260904011504 | 15 | 203 | 8.0 | 20.9 | 0.00 | 0.18 | 0.18 | 67 | 1008.9 |
| 20260904011003 | 15 | 148 | 6.4 | 16.1 | 0.00 | 0.18 | 0.18 | 67 | 1008.7 |
| 20260904010504 | 15 | 173 | 6.4 | 16.1 | 0.00 | 0.18 | 0.18 | 67 | 1008.7 |
| 20260904010001 | 15 | 181 | 6.4 | 16.1 | 0.00 | 0.18 | 0.18 | 70 | 1008.7 |
| 20260904005449 | 15 | 214 | 9.7 | 19.3 | 0.00 | 0.18 | 0.18 | 70 | 1008.9 |
| 20260904004938 | 15 | 170 | 11.3 | 19.3 | 0.00 | 0.18 | 0.18 | 70 | 1008.9 |
| 20260904004434 | 15 | 159 | 9.7 | 20.9 | 0.00 | 0.18 | 0.18 | 71 | 1008.9 |
| 20260904003933 | 15 | 147 | 9.7 | 20.9 | 0.00 | 0.18 | 0.18 | 71 | 1009.2 |
| 20260904003820 | 15 | 163 | 11.3 | 24.1 | 0.00 | 0.18 | 0.18 | 70 | 1009.2 |
| 20260904002430 | 16 | 238 | 11.3 | 22.5 | 0.00 | 0.18 | 0.18 | 68 | 1009.1 |
| 20260904001929 | 16 | 174 | 8.0 | 22.5 | 0.00 | 0.18 | 0.18 | 68 | 1009.1 |
| 20260904001429 | 16 | 178 | 8.0 | 19.3 | 0.00 | 0.18 | 0.18 | 69 | 1009.1 |
| 20260904000929 | 15 | 150 | 8.0 | 19.3 | 0.00 | 0.18 | 0.18 | 70 | 1009.1 |
| 20260904000432 | 16 | 148 | 8.0 | 17.7 | 0.00 | 0.18 | 0.18 | 69 | 1009.1 |
| 20260904000022 | 16 | 199 | 8.0 | 16.1 | 0.00 | 0.18 | 0.18 | 70 | 1009.1 |
| 20260903234945 | 15 | 173 | 6.4 | 12.9 | 0.00 | 0.18 | 0.18 | 70 | 1009.2 |
| 20260903234435 | 15 | 208 | 8.0 | 17.7 | 0.00 | 0.18 | 0.18 | 69 | 1009.2 |
| 20260903233938 | 16 | 204 | 9.7 | 17.7 | 0.00 | 0.18 | 0.18 | 68 | 1009.2 |
| 20260903233752 | 16 | 173 | 9.7 | 17.7 | 0.00 | 0.18 | 0.18 | 68 | 1009.2 |
| 20260903232934 | 16 | 236 | 9.7 | 17.7 | 0.00 | 0.18 | 0.18 | 68 | 1009.2 |
| 20260903232433 | 15 | 205 | 12.9 | 24.1 | 0.00 | 0.18 | 0.18 | 69 | 1009.2 |
| 20260903231940 | 15 | 169 | 14.5 | 24.1 | 0.00 | 0.18 | 0.18 | 68 | 1009.2 |
| 20260903231523 | 16 | 258 | 11.3 | 24.1 | 0.00 | 0.18 | 0.18 | 68 | 1009.2 |
| 20260903230717 | 16 | 171 | 11.3 | 25.7 | 0.00 | 0.18 | 0.18 | 69 | 1009.2 |
| 20260903225913 | 16 | 269 | 11.3 | 25.7 | 0.00 | 0.18 | 0.18 | 69 | 1009.2 |
| 20260903225410 | 16 | 239 | 11.3 | 24.1 | 0.00 | 0.18 | 0.18 | 69 | 1009.1 |
| 20260903224924 | 16 | 201 | 12.9 | 24.1 | 0.00 | 0.18 | 0.18 | 68 | 1009.1 |
| 20260903224428 | 16 | 188 | 14.5 | 24.1 | 0.00 | 0.18 | 0.18 | 67 | 1009.1 |
| 20260903223910 | 16 | 221 | 14.5 | 24.1 | 0.00 | 0.18 | 0.18 | 66 | 1009.2 |
| 20260903223416 | 16 | 232 | 12.9 | 24.1 | 0.00 | 0.18 | 0.18 | 65 | 1009.2 |
| 20260903223210 | 16 | 194 | 14.5 | 29.0 | 0.00 | 0.18 | 0.18 | 65 | 1009.2 |
| 20260903222412 | 16 | 236 | 14.5 | 29.0 | 0.00 | 0.18 | 0.18 | 65 | 1009.2 |
| 20260903221708 | 16 | 226 | 11.3 | 20.9 | 0.00 | 0.18 | 0.18 | 68 | 1009.2 |
| 20260903220904 | 16 | 248 | 9.7 | 19.3 | 0.00 | 0.18 | 0.18 | 71 | 1009.2 |
| 20260903220444 | 16 | 215 | 9.7 | 19.3 | 0.00 | 0.18 | 0.18 | 71 | 1009.2 |
| 20260903215406 | 16 | 246 | 11.3 | 20.9 | 0.00 | 0.20 | 0.18 | 68 | 1008.9 |
| 20260903214905 | 16 | 252 | 9.7 | 19.3 | 0.00 | 0.20 | 0.18 | 67 | 1008.9 |
| 20260903214408 | 16 | 278 | 8.0 | 19.3 | 0.00 | 0.23 | 0.18 | 67 | 1008.9 |
| 20260903213910 | 16 | 213 | 6.4 | 16.1 | 0.00 | 0.23 | 0.18 | 66 | 1008.9 |
| 20260903213400 | 16 | 272 | 9.7 | 24.1 | 0.00 | 0.25 | 0.18 | 66 | 1008.9 |
| 20260903212851 | 16 | 246 | 11.3 | 24.1 | 0.00 | 0.25 | 0.18 | 65 | 1008.9 |
| 20260903212344 | 17 | 271 | 11.3 | 24.1 | 0.00 | 0.28 | 0.18 | 65 | 1008.7 |
| 20260903211846 | 17 | 237 | 11.3 | 27.4 | 0.00 | 0.33 | 0.18 | 64 | 1008.7 |
| 20260903211344 | 17 | 229 | 11.3 | 27.4 | 0.00 | 0.33 | 0.18 | 60 | 1008.7 |
| 20260903210848 | 17 | 248 | 8.0 | 17.7 | 0.00 | 0.36 | 0.18 | 60 | 1008.6 |
| 20260903210633 | 17 | 269 | 6.4 | 16.1 | 0.00 | 0.36 | 0.18 | 61 | 1008.6 |
| 20260903205845 | 17 | 217 | 4.8 | 11.3 | 0.00 | 0.36 | 0.18 | 62 | 1008.6 |
| 20260903205633 | 17 | 225 | 6.4 | 14.5 | 0.00 | 0.38 | 0.18 | 63 | 1008.7 |
| 20260903204850 | 16 | 219 | 8.0 | 16.1 | 0.00 | 0.41 | 0.18 | 64 | 1008.7 |
| 20260903204331 | 16 | 136 | 8.0 | 16.1 | 0.00 | 0.41 | 0.18 | 64 | 1008.7 |
| 20260903203834 | 16 | 221 | 9.7 | 20.9 | 0.00 | 0.43 | 0.18 | 64 | 1008.7 |
| 20260903203335 | 16 | 235 | 9.7 | 20.9 | 0.00 | 0.43 | 0.18 | 63 | 1008.7 |
| 20260903202830 | 17 | 191 | 9.7 | 24.1 | 0.00 | 0.46 | 0.18 | 62 | 1008.7 |
| 20260903202329 | 16 | 192 | 11.3 | 24.1 | 0.00 | 0.46 | 0.18 | 64 | 1008.7 |
| 20260903201916 | 16 | 184 | 9.7 | 22.5 | 0.00 | 0.48 | 0.18 | 64 | 1008.7 |
| 20260903200829 | 16 | 220 | 11.3 | 22.5 | 0.00 | 0.48 | 0.18 | 64 | 1008.7 |
| 20260903200331 | 16 | 174 | 11.3 | 24.1 | 0.00 | 0.51 | 0.18 | 65 | 1008.7 |
| 20260903195835 | 16 | 156 | 9.7 | 24.1 | 0.00 | 0.51 | 0.18 | 65 | 1008.7 |
| 20260903195326 | 16 | 196 | 11.3 | 20.9 | 0.00 | 0.51 | 0.18 | 67 | 1008.7 |
| 20260903194811 | 16 | 173 | 11.3 | 24.1 | 0.00 | 0.53 | 0.18 | 68 | 1008.7 |
| 20260903194650 | 16 | 168 | 9.7 | 24.1 | 0.00 | 0.53 | 0.18 | 68 | 1008.7 |
| 20260903193543 | 16 | 171 | 11.3 | 22.5 | 0.00 | 0.53 | 0.18 | 69 | 1008.7 |
| 20260903192748 | 16 | 192 | 11.3 | 24.1 | 0.00 | 0.53 | 0.18 | 71 | 1008.7 |
| 20260903192243 | 15 | 196 | 11.3 | 24.1 | 0.00 | 0.53 | 0.18 | 70 | 1008.7 |
| 20260903191739 | 15 | 208 | 11.3 | 20.9 | 0.00 | 0.53 | 0.18 | 72 | 1008.7 |
| 20260903191240 | 15 | 194 | 12.9 | 24.1 | 0.00 | 0.53 | 0.18 | 71 | 1008.7 |
| 20260903191036 | 15 | 155 | 12.9 | 24.1 | 0.00 | 0.53 | 0.18 | 70 | 1008.7 |
| 20260903190240 | 15 | 180 | 11.3 | 25.7 | 0.00 | 0.53 | 0.18 | 71 | 1008.7 |
| 20260903185738 | 15 | 183 | 14.5 | 25.7 | 0.00 | 0.53 | 0.18 | 72 | 1008.7 |
| 20260903185238 | 15 | 203 | 16.1 | 29.0 | 0.00 | 0.53 | 0.18 | 72 | 1008.7 |
| 20260903184740 | 15 | 221 | 12.9 | 29.0 | 0.00 | 0.53 | 0.18 | 71 | 1008.7 |
| 20260903184234 | 15 | 207 | 16.1 | 33.8 | 0.00 | 0.53 | 0.18 | 73 | 1008.7 |
| 20260903183737 | 15 | 181 | 19.3 | 40.2 | 0.00 | 0.53 | 0.18 | 73 | 1008.6 |
| 20260903183534 | 15 | 191 | 16.1 | 40.2 | 0.00 | 0.53 | 0.18 | 74 | 1008.6 |
| 20260903182731 | 15 | 216 | 14.5 | 30.6 | 0.00 | 0.53 | 0.18 | 73 | 1008.6 |
| 20260903182233 | 15 | 194 | 16.1 | 33.8 | 0.00 | 0.53 | 0.18 | 74 | 1008.6 |
| 20260903181732 | 15 | 190 | 14.5 | 33.8 | 0.00 | 0.53 | 0.18 | 74 | 1008.6 |
| 20260903181222 | 15 | 184 | 16.1 | 30.6 | 0.00 | 0.53 | 0.18 | 75 | 1008.6 |
| 20260903180725 | 15 | 197 | 16.1 | 30.6 | 0.00 | 0.53 | 0.18 | 75 | 1008.4 |
| 20260903180218 | 15 | 223 | 14.5 | 30.6 | 0.00 | 0.53 | 0.18 | 76 | 1008.4 |
| 20260903175712 | 15 | 201 | 12.9 | 20.9 | 0.00 | 0.53 | 0.18 | 77 | 1008.4 |
| 20260903175514 | 15 | 186 | 11.3 | 22.5 | 0.00 | 0.53 | 0.18 | 76 | 1008.2 |
| 20260903174713 | 15 | 182 | 14.5 | 33.8 | 0.00 | 0.53 | 0.18 | 77 | 1008.2 |
| 20260903174503 | 15 | 192 | 17.7 | 33.8 | 0.00 | 0.53 | 0.18 | 76 | 1008.2 |
| 20260903173713 | 15 | 225 | 12.9 | 32.2 | 0.00 | 0.53 | 0.18 | 76 | 1008.2 |
| 20260903173504 | 15 | 175 | 9.7 | 20.9 | 0.00 | 0.53 | 0.18 | 78 | 1008.2 |
| 20260903172705 | 14 | 165 | 12.9 | 24.1 | 0.00 | 0.53 | 0.18 | 79 | 1008.2 |
| 20260903172257 | 14 | 176 | 11.3 | 24.1 | 0.00 | 0.53 | 0.18 | 79 | 1008.2 |
| 20260903171257 | 14 | 185 | 9.7 | 22.5 | 0.00 | 0.53 | 0.18 | 81 | 1008.2 |
| 20260903170202 | 13 | 192 | 9.7 | 19.3 | 0.00 | 0.53 | 0.18 | 83 | 1008.1 |
| 20260903165702 | 13 | 231 | 9.7 | 20.9 | 0.00 | 0.53 | 0.18 | 84 | 1008.1 |
| 20260903165204 | 13 | 170 | 8.0 | 20.9 | 0.00 | 0.53 | 0.18 | 84 | 1008.1 |
| 20260903164709 | 13 | 184 | 6.4 | 17.7 | 0.00 | 0.53 | 0.18 | 85 | 1008.1 |
| 20260903164204 | 13 | 189 | 6.4 | 11.3 | 0.00 | 0.53 | 0.18 | 86 | 1008.1 |
| 20260903163706 | 13 | 209 | 6.4 | 14.5 | 0.00 | 0.53 | 0.18 | 86 | 1008.1 |
| 20260903163504 | 13 | 174 | 8.0 | 19.3 | 0.00 | 0.53 | 0.18 | 86 | 1008.1 |
| 20260903162701 | 13 | 154 | 8.0 | 19.3 | 0.03 | 0.53 | 0.18 | 86 | 1008.1 |
| 20260903162206 | 13 | 184 | 6.4 | 14.5 | 0.03 | 0.53 | 0.18 | 87 | 1008.2 |
| 20260903161958 | 13 | 177 | 6.4 | 12.9 | 0.03 | 0.53 | 0.18 | 87 | 1008.2 |
| 20260903161202 | 13 | 196 | 8.0 | 14.5 | 0.03 | 0.53 | 0.18 | 87 | 1008.2 |
| 20260903161014 | 13 | 192 | 8.0 | 14.5 | 0.03 | 0.53 | 0.18 | 87 | 1008.2 |
| 20260903160206 | 13 | 183 | 8.0 | 19.3 | 0.03 | 0.53 | 0.18 | 87 | 1008.2 |
| 20260903155702 | 13 | 230 | 8.0 | 19.3 | 0.03 | 0.53 | 0.18 | 88 | 1008.2 |
| 20260903155202 | 13 | 175 | 8.0 | 16.1 | 0.03 | 0.53 | 0.18 | 88 | 1008.1 |
| 20260903155011 | 13 | 167 | 8.0 | 17.7 | 0.03 | 0.53 | 0.18 | 88 | 1008.1 |
| 20260903154508 | 13 | 212 | 8.0 | 17.7 | 0.03 | 0.53 | 0.18 | 88 | 1008.1 |
| 20260903153708 | 13 | 177 | 9.7 | 19.3 | 0.03 | 0.53 | 0.18 | 88 | 1008.1 |
| 20260903153517 | 13 | 194 | 11.3 | 19.3 | 0.03 | 0.53 | 0.18 | 88 | 1008.1 |
| 20260903152947 | 13 | 185 | 9.7 | 19.3 | 0.00 | 0.51 | 0.15 | 88 | 1008.1 |
| 20260903152146 | 13 | 148 | 8.0 | 16.1 | 0.00 | 0.51 | 0.15 | 88 | 1008.0 |
| 20260903151645 | 13 | 188 | 8.0 | 16.1 | 0.00 | 0.51 | 0.15 | 88 | 1008.0 |
| 20260903151137 | 12 | 211 | 6.4 | 11.3 | 0.00 | 0.51 | 0.15 | 88 | 1007.7 |
| 20260903150634 | 12 | 177 | 8.0 | 16.1 | 0.03 | 0.51 | 0.15 | 88 | 1007.7 |
| 20260903150124 | 12 | 193 | 8.0 | 16.1 | 0.03 | 0.51 | 0.15 | 88 | 1007.7 |
| 20260903145624 | 12 | 217 | 6.4 | 16.1 | 0.03 | 0.51 | 0.15 | 88 | 1007.6 |
| 20260903145422 | 12 | 167 | 9.7 | 17.7 | 0.03 | 0.51 | 0.15 | 87 | 1007.6 |
| 20260903144622 | 12 | 198 | 9.7 | 17.7 | 0.03 | 0.51 | 0.15 | 87 | 1007.6 |
| 20260903144126 | 12 | 198 | 9.7 | 22.5 | 0.03 | 0.51 | 0.15 | 88 | 1007.6 |
| 20260903143625 | 12 | 171 | 9.7 | 22.5 | 0.03 | 0.51 | 0.15 | 88 | 1007.6 |
| 20260903143120 | 12 | 177 | 9.7 | 20.9 | 0.03 | 0.51 | 0.15 | 88 | 1007.6 |
| 20260903142613 | 12 | 171 | 9.7 | 22.5 | 0.03 | 0.51 | 0.15 | 88 | 1007.5 |
| 20260903142111 | 12 | 177 | 11.3 | 25.7 | 0.03 | 0.51 | 0.15 | 88 | 1007.5 |
| 20260903141609 | 12 | 190 | 12.9 | 25.7 | 0.03 | 0.51 | 0.15 | 88 | 1007.5 |
| 20260903141106 | 12 | 177 | 11.3 | 20.9 | 0.03 | 0.51 | 0.13 | 87 | 1007.3 |
| 20260903140606 | 12 | 205 | 9.7 | 19.3 | 0.03 | 0.48 | 0.13 | 87 | 1007.3 |
| 20260903140107 | 12 | 172 | 9.7 | 17.7 | 0.03 | 0.48 | 0.13 | 87 | 1007.3 |
| 20260903135611 | 12 | 163 | 11.3 | 24.1 | 0.03 | 0.48 | 0.13 | 86 | 1007.2 |
| 20260903135410 | 12 | 227 | 11.3 | 24.1 | 0.03 | 0.48 | 0.13 | 86 | 1007.2 |
| 20260903134917 | 12 | 163 | 9.7 | 20.9 | 0.03 | 0.48 | 0.13 | 86 | 1007.2 |
| 20260903134105 | 12 | 187 | 9.7 | 19.3 | 0.03 | 0.48 | 0.13 | 87 | 1007.1 |
| 20260903133605 | 12 | 161 | 9.7 | 24.1 | 0.03 | 0.48 | 0.13 | 87 | 1007.1 |
| 20260903133103 | 12 | 198 | 9.7 | 25.7 | 0.03 | 0.48 | 0.13 | 87 | 1007.1 |
| 20260903132602 | 12 | 174 | 9.7 | 25.7 | 0.03 | 0.48 | 0.13 | 87 | 1007.1 |
| 20260903132105 | 12 | 198 | 8.0 | 19.3 | 0.03 | 0.48 | 0.13 | 88 | 1007.1 |
| 20260903131913 | 12 | 202 | 8.0 | 19.3 | 0.03 | 0.48 | 0.13 | 88 | 1007.1 |
| 20260903131102 | 12 | 169 | 11.3 | 19.3 | 0.03 | 0.48 | 0.13 | 87 | 1007.0 |
| 20260903130552 | 12 | 201 | 11.3 | 22.5 | 0.00 | 0.46 | 0.10 | 87 | 1007.0 |
| 20260903130042 | 12 | 202 | 9.7 | 25.7 | 0.00 | 0.46 | 0.10 | 87 | 1007.0 |
| 20260903125531 | 12 | 172 | 8.0 | 25.7 | 0.03 | 0.46 | 0.10 | 87 | 1006.9 |
| 20260903125031 | 12 | 202 | 8.0 | 19.3 | 0.03 | 0.46 | 0.10 | 87 | 1006.9 |
| 20260903124531 | 13 | 225 | 9.7 | 19.3 | 0.03 | 0.46 | 0.10 | 87 | 1006.9 |
| 20260903124022 | 12 | 186 | 11.3 | 20.9 | 0.03 | 0.46 | 0.10 | 87 | 1007.0 |
| 20260903123511 | 12 | 176 | 12.9 | 20.9 | 0.05 | 0.46 | 0.10 | 87 | 1007.0 |
| 20260903123007 | 12 | 182 | 11.3 | 20.9 | 0.05 | 0.46 | 0.10 | 87 | 1007.0 |
| 20260903122506 | 12 | 197 | 11.3 | 19.3 | 0.05 | 0.46 | 0.10 | 87 | 1006.9 |
| 20260903122004 | 12 | 190 | 11.3 | 20.9 | 0.05 | 0.46 | 0.10 | 87 | 1006.9 |
| 20260903121501 | 12 | 201 | 9.7 | 20.9 | 0.05 | 0.46 | 0.10 | 87 | 1006.9 |
| 20260903121001 | 12 | 198 | 8.0 | 17.7 | 0.05 | 0.46 | 0.10 | 88 | 1006.9 |
| 20260903120501 | 12 | 174 | 9.7 | 24.1 | 0.08 | 0.46 | 0.10 | 88 | 1006.9 |
| 20260903120002 | 12 | 164 | 11.3 | 24.1 | 0.05 | 0.43 | 0.08 | 88 | 1006.9 |
| 20260903115502 | 12 | 183 | 11.3 | 20.9 | 0.05 | 0.43 | 0.08 | 88 | 1006.8 |
| 20260903115001 | 12 | 173 | 9.7 | 24.1 | 0.05 | 0.43 | 0.08 | 87 | 1006.8 |
| 20260903114501 | 12 | 196 | 9.7 | 24.1 | 0.05 | 0.43 | 0.08 | 87 | 1006.8 |
| 20260903114319 | 12 | 217 | 9.7 | 19.3 | 0.05 | 0.43 | 0.08 | 87 | 1006.7 |
| 20260903113505 | 13 | 192 | 9.7 | 17.7 | 0.03 | 0.41 | 0.05 | 87 | 1006.7 |
| 20260903113007 | 13 | 159 | 11.3 | 22.5 | 0.03 | 0.41 | 0.05 | 87 | 1006.7 |
| 20260903112508 | 13 | 165 | 11.3 | 22.5 | 0.03 | 0.41 | 0.05 | 87 | 1006.8 |
| 20260903112002 | 13 | 168 | 11.3 | 20.9 | 0.03 | 0.41 | 0.05 | 86 | 1006.8 |
| 20260903111503 | 13 | 187 | 11.3 | 19.3 | 0.03 | 0.41 | 0.05 | 86 | 1006.8 |
| 20260903111002 | 13 | 226 | 11.3 | 19.3 | 0.03 | 0.41 | 0.05 | 85 | 1006.9 |
| 20260903110503 | 13 | 188 | 9.7 | 19.3 | 0.00 | 0.38 | 0.03 | 85 | 1006.9 |
| 20260903105955 | 13 | 221 | 9.7 | 24.1 | 0.00 | 0.38 | 0.03 | 84 | 1006.9 |
| 20260903105454 | 13 | 169 | 9.7 | 24.1 | 0.00 | 0.38 | 0.03 | 84 | 1006.9 |
| 20260903105027 | 13 | 169 | 8.0 | 16.1 | 0.00 | 0.38 | 0.03 | 84 | 1006.9 |
| 20260903103934 | 13 | 180 | 6.4 | 11.3 | 0.00 | 0.38 | 0.03 | 84 | 1006.9 |
| 20260903103425 | 13 | 200 | 6.4 | 14.5 | 0.00 | 0.38 | 0.03 | 84 | 1006.9 |
| 20260903102922 | 13 | 177 | 6.4 | 14.5 | 0.00 | 0.38 | 0.03 | 84 | 1006.9 |
| 20260903102417 | 13 | 191 | 6.4 | 11.3 | 0.00 | 0.38 | 0.03 | 84 | 1006.7 |
| 20260903101912 | 13 | 196 | 6.4 | 12.9 | 0.00 | 0.38 | 0.03 | 84 | 1006.7 |
| 20260903101412 | 13 | 177 | 6.4 | 12.9 | 0.00 | 0.38 | 0.03 | 84 | 1006.7 |
| 20260903100912 | 13 | 215 | 6.4 | 11.3 | 0.00 | 0.38 | 0.03 | 84 | 1006.6 |
| 20260903100740 | 13 | 228 | 4.8 | 11.3 | 0.00 | 0.38 | 0.03 | 84 | 1006.6 |
| 20260903095908 | 13 | 180 | 6.4 | 11.3 | 0.00 | 0.38 | 0.03 | 84 | 1006.6 |
| 20260903095409 | 13 | 188 | 8.0 | 16.1 | 0.00 | 0.38 | 0.03 | 84 | 1006.6 |
| 20260903094907 | 13 | 182 | 8.0 | 16.1 | 0.00 | 0.38 | 0.03 | 84 | 1006.6 |
| 20260903094705 | 13 | 185 | 6.4 | 11.3 | 0.00 | 0.38 | 0.03 | 84 | 1006.6 |
| 20260903094222 | 13 | 177 | 6.4 | 17.7 | 0.00 | 0.38 | 0.03 | 84 | 1006.6 |
| 20260903093835 | 13 | 176 | 8.0 | 17.7 | 0.00 | 0.38 | 0.03 | 84 | 1006.6 |
| 20260903092401 | 13 | 172 | 8.0 | 16.1 | 0.00 | 0.38 | 0.03 | 84 | 1006.8 |
| 20260903091902 | 13 | 169 | 6.4 | 16.1 | 0.00 | 0.38 | 0.03 | 84 | 1006.8 |
| 20260903091401 | 13 | 178 | 6.4 | 16.1 | 0.00 | 0.38 | 0.03 | 85 | 1006.8 |
| 20260903090901 | 13 | 200 | 6.4 | 14.5 | 0.00 | 0.38 | 0.03 | 85 | 1006.7 |
| 20260903090417 | 13 | 176 | 8.0 | 17.7 | 0.00 | 0.38 | 0.03 | 86 | 1006.7 |
| 20260903085914 | 13 | 210 | 8.0 | 17.7 | 0.00 | 0.38 | 0.03 | 85 | 1006.7 |
| 20260903085412 | 13 | 187 | 8.0 | 17.7 | 0.00 | 0.38 | 0.03 | 86 | 1006.7 |
| 20260903084903 | 13 | 222 | 8.0 | 17.7 | 0.03 | 0.38 | 0.03 | 86 | 1006.7 |
| 20260903084403 | 13 | 190 | 8.0 | 16.1 | 0.03 | 0.38 | 0.03 | 86 | 1006.7 |
| 20260903083901 | 13 | 206 | 9.7 | 17.7 | 0.03 | 0.38 | 0.03 | 86 | 1006.7 |
| 20260903083406 | 13 | 192 | 9.7 | 17.7 | 0.03 | 0.38 | 0.03 | 86 | 1006.7 |
| 20260903083156 | 13 | 182 | 11.3 | 19.3 | 0.03 | 0.38 | 0.03 | 86 | 1006.7 |
| 20260903082402 | 13 | 192 | 9.7 | 19.3 | 0.03 | 0.38 | 0.03 | 86 | 1006.6 |